GW6237 Weather Reports


Display with metric or nautical units.
time (UTC)temp
F
wind
direction
speed
MPH
gust
MPH
rain 1hr
in
rain 24hr
in
rain mn
in
humidity
%
barometer
mb
20260906152959 95 37 1.0 4.0 0.00 0.01 0.00 52 1006.4
20260906152458 95 332 2.0 4.0 0.00 0.01 0.00 50 1006.4
20260906151959 95 334 1.0 4.0 0.00 0.01 0.00 51 1006.4
20260906151459 93 57 3.0 4.0 0.00 0.01 0.00 53 1006.4
20260906150958 92 262 1.0 5.0 0.00 0.01 0.00 56 1006.4
20260906150458 92 77 3.0 6.0 0.00 0.01 0.00 59 1006.4
20260906145958 91 14 2.0 6.0 0.00 0.01 0.00 60 1006.4
20260906145458 90 52 2.0 5.0 0.00 0.01 0.00 60 1006.4
20260906144958 90 18 3.0 4.0 0.00 0.01 0.00 59 1006.3
20260906144458 90 13 2.0 4.0 0.00 0.01 0.00 58 1006.4
20260906143958 90 64 2.0 4.0 0.00 0.01 0.00 59 1006.5
20260906143458 89 8 2.0 4.0 0.00 0.01 0.00 57 1005.5
20260906142958 90 116 1.0 2.0 0.00 0.01 0.00 62 1006.3
20260906142459 89 216 1.0 2.0 0.00 0.01 0.00 63 1006.3
20260906141958 87 259 1.0 3.0 0.00 0.01 0.00 66 1006.4
20260906141458 87 329 1.0 3.0 0.00 0.01 0.00 67 1006.4
20260906140958 87 252 2.0 3.0 0.00 0.01 0.00 69 1006.5
20260906140458 86 1 1.0 3.0 0.00 0.01 0.00 69 1006.5
20260906135958 85 324 0.0 3.0 0.00 0.01 0.00 71 1006.5
20260906135458 85 261 1.0 3.0 0.00 0.01 0.00 72 1006.5
20260906134959 85 275 3.0 5.0 0.00 0.01 0.00 75 1006.5
20260906134458 82 253 3.0 5.0 0.00 0.01 0.00 74 1006.6
20260906133958 84 209 2.0 4.0 0.00 0.01 0.00 78 1006.5
20260906133458 83 313 2.0 4.0 0.00 0.01 0.00 76 1006.5
20260906132958 83 326 3.0 5.0 0.00 0.01 0.00 77 1006.1
20260906132459 82 311 3.0 5.0 0.00 0.01 0.00 78 1006.5
20260906131959 82 271 2.0 3.0 0.00 0.01 0.00 82 1006.4
20260906131458 82 226 3.0 3.0 0.00 0.01 0.00 79 1006.4
20260906130958 80 295 1.0 3.0 0.00 0.01 0.00 82 1006.4
20260906130458 81 188 2.0 3.0 0.00 0.01 0.00 84 1006.4
20260906125958 81 192 3.0 3.0 0.00 0.01 0.00 85 1006.4
20260906125458 80 195 2.0 2.0 0.00 0.01 0.00 83 1006.3
20260906124959 77 212 1.0 2.0 0.00 0.01 0.00 84 1006.3
20260906124458 79 225 1.0 2.0 0.00 0.01 0.00 86 1006.3
20260906123958 78 201 1.0 3.0 0.00 0.01 0.00 87 1006.2
20260906123458 78 214 2.0 3.0 0.00 0.01 0.00 87 1006.2
20260906122958 78 184 3.0 3.0 0.00 0.01 0.00 87 1006.2
20260906122458 78 180 1.0 2.0 0.00 0.01 0.00 87 1006.1
20260906121958 78 217 1.0 2.0 0.00 0.01 0.00 88 1005.9
20260906121458 77 230 1.0 2.0 0.00 0.01 0.00 88 1005.9
20260906120958 77 235 1.0 1.0 0.00 0.01 0.00 89 1005.8
20260906120458 77 46 0.0 1.0 0.00 0.01 0.00 90 1005.7
20260906115958 77 221 1.0 1.0 0.00 0.01 0.00 90 1005.8
20260906115458 76 201 1.0 1.0 0.00 0.01 0.00 90 1005.7
20260906114958 76 171 1.0 1.0 0.00 0.01 0.00 90 1005.6
20260906114458 76 256 0.0 1.0 0.00 0.01 0.00 90 1005.5
20260906113958 76 236 0.0 4.0 0.00 0.01 0.00 90 1005.5
20260906113458 75 287 1.0 5.0 0.00 0.01 0.00 89 1005.8
20260906112958 77 198 3.0 5.0 0.00 0.01 0.00 89 1005.5
20260906112459 77 220 3.0 3.0 0.00 0.01 0.00 89 1005.4
20260906111958 77 328 1.0 1.0 0.00 0.01 0.00 89 1005.3
20260906111459 77 322 0.0 2.0 0.00 0.01 0.00 89 1005.3
20260906111004 77 333 1.0 3.0 0.00 0.01 0.00 88 1005.3
20260906110458 77 348 2.0 3.0 0.00 0.01 0.00 89 1005.3
20260906105958 76 344 2.0 3.0 0.00 0.01 0.00 89 1005.1
20260906105458 76 357 1.0 3.0 0.00 0.01 0.00 88 1005.1
20260906104958 78 10 2.0 3.0 0.00 0.01 0.00 87 1005.0
20260906104458 78 333 2.0 3.0 0.00 0.01 0.00 87 1005.1
20260906103958 78 284 2.0 3.0 0.00 0.01 0.00 88 1005.1
20260906103458 78 270 3.0 3.0 0.00 0.01 0.00 88 1005.1
20260906102958 77 336 3.0 3.0 0.00 0.01 0.00 88 1005.1
20260906102458 77 349 2.0 2.0 0.00 0.01 0.00 88 1005.1
20260906101958 77 10 2.0 2.0 0.00 0.01 0.00 88 1005.1
20260906101459 77 13 1.0 1.0 0.00 0.01 0.00 87 1005.1
20260906100959 77 235 0.0 2.0 0.00 0.01 0.00 87 1005.1
20260906100458 78 186 1.0 2.0 0.00 0.01 0.00 87 1005.1
20260906095958 78 176 1.0 2.0 0.00 0.01 0.00 85 1005.1
20260906095459 78 152 2.0 3.0 0.00 0.01 0.00 85 1005.0
20260906094958 79 75 1.0 3.0 0.00 0.01 0.00 86 1004.9
20260906094458 79 54 3.0 3.0 0.00 0.01 0.00 86 1005.0
20260906093958 79 51 3.0 3.0 0.00 0.01 0.00 86 1005.1
20260906093458 78 108 0.0 3.0 0.00 0.01 0.00 83 1005.0
20260906092959 78 121 1.0 3.0 0.00 0.01 0.00 83 1005.0
20260906092458 79 105 2.0 2.0 0.00 0.01 0.00 86 1004.9
20260906091959 79 121 2.0 3.0 0.00 0.01 0.00 87 1005.0
20260906091459 79 124 1.0 3.0 0.00 0.01 0.00 87 1005.0
20260906090958 78 101 2.0 3.0 0.00 0.01 0.00 88 1004.8
20260906090459 78 93 2.0 3.0 0.00 0.01 0.00 87 1004.8
20260906085958 77 146 2.0 5.0 0.00 0.01 0.00 87 1004.7
20260906085458 77 192 3.0 6.0 0.00 0.01 0.00 86 1004.6
20260906084958 80 191 4.0 6.0 0.00 0.01 0.00 83 1004.5
20260906084458 80 134 1.0 2.0 0.00 0.01 0.00 82 1004.4
20260906083958 80 77 1.0 1.0 0.00 0.01 0.00 82 1004.4
20260906083459 79 86 1.0 1.0 0.00 0.01 0.00 81 1004.4
20260906082958 79 145 1.0 2.0 0.00 0.01 0.00 82 1004.5
20260906082458 79 169 1.0 2.0 0.00 0.01 0.00 81 1004.4
20260906081958 80 114 1.0 2.0 0.00 0.01 0.00 80 1004.4
20260906081458 81 354 0.0 2.0 0.00 0.01 0.00 80 1004.3
20260906080958 79 338 1.0 2.0 0.00 0.01 0.00 82 1004.1
20260906080458 80 314 1.0 2.0 0.00 0.01 0.00 82 1004.1
20260906075959 80 277 1.0 2.0 0.00 0.01 0.00 82 1004.2
20260906075458 81 48 1.0 2.0 0.00 0.01 0.00 82 1004.2
20260906074958 81 346 1.0 4.0 0.00 0.01 0.00 80 1004.2
20260906074458 81 305 2.0 4.0 0.00 0.01 0.00 80 1004.2
20260906073958 79 322 4.0 4.0 0.00 0.01 0.00 81 1004.2
20260906073459 79 345 3.0 4.0 0.00 0.01 0.00 84 1004.3
20260906072958 80 11 3.0 4.0 0.00 0.01 0.00 85 1004.3
20260906072458 80 349 4.0 4.0 0.00 0.01 0.00 85 1004.3
20260906071958 78 356 3.0 4.0 0.00 0.01 0.00 85 1004.4
20260906071458 78 25 3.0 3.0 0.00 0.01 0.00 85 1004.5
20260906070958 80 333 1.0 2.0 0.00 0.01 0.00 83 1004.5
20260906070458 80 299 1.0 4.0 0.00 0.01 0.00 84 1004.5
20260906065959 80 187 1.0 4.0 0.00 0.01 0.00 83 1004.5
20260906065458 81 229 4.0 4.0 0.00 0.01 0.00 83 1004.6
20260906064958 80 326 2.0 2.0 0.00 0.01 0.00 82 1004.6
20260906064458 80 348 2.0 2.0 0.00 0.01 0.00 80 1004.6
20260906063959 81 13 1.0 2.0 0.00 0.01 0.00 81 1004.6
20260906063458 80 355 2.0 2.0 0.00 0.01 0.00 81 1004.6
20260906062958 81 25 2.0 2.0 0.00 0.01 0.00 80 1004.7
20260906062458 80 350 1.0 2.0 0.00 0.01 0.00 80 1004.8
20260906061959 81 321 0.0 2.0 0.00 0.01 0.00 81 1004.8
20260906061458 80 178 1.0 2.0 0.00 0.01 0.00 80 1004.9
20260906060959 81 322 1.0 2.0 0.00 0.01 0.00 81 1004.9
20260906060459 81 210 1.0 2.0 0.00 0.01 0.00 81 1004.9
20260906055958 81 115 2.0 3.0 0.00 0.01 0.01 81 1004.9
20260906055458 81 319 0.0 6.0 0.00 0.01 0.01 82 1005.0
20260906054959 80 272 2.0 10.0 0.00 0.01 0.01 82 1005.0
20260906054458 81 227 4.0 12.0 0.00 0.01 0.01 82 1005.0
20260906053958 80 189 7.0 12.0 0.00 0.01 0.01 84 1005.0
20260906053458 81 24 1.0 3.0 0.00 0.01 0.01 86 1004.7
20260906052958 81 18 2.0 3.0 0.00 0.01 0.01 85 1004.7
20260906052458 81 360 2.0 3.0 0.00 0.01 0.01 84 1004.7
20260906051958 80 6 3.0 3.0 0.00 0.01 0.01 83 1004.7
20260906051458 82 14 2.0 2.0 0.00 0.01 0.01 84 1004.7
20260906050958 80 18 1.0 1.0 0.00 0.01 0.01 84 1004.6
20260906050459 81 46 1.0 2.0 0.00 0.01 0.01 84 1004.6
20260906045958 81 130 1.0 2.0 0.00 0.01 0.01 84 1004.6
20260906045458 81 94 1.0 2.0 0.00 0.01 0.01 83 1004.6
20260906044958 80 117 1.0 1.0 0.00 0.01 0.01 82 1004.6
20260906044458 81 196 0.0 1.0 0.00 0.01 0.01 82 1004.6
20260906043958 81 101 0.0 1.0 0.00 0.01 0.01 82 1004.6
20260906043458 81 168 1.0 3.0 0.00 0.01 0.01 82 1004.5
20260906042958 81 210 1.0 3.0 0.00 0.01 0.01 81 1004.4
20260906042458 82 190 3.0 3.0 0.00 0.01 0.01 82 1004.3
20260906041958 82 188 2.0 3.0 0.00 0.01 0.01 82 1004.2
20260906041459 82 191 2.0 3.0 0.00 0.01 0.01 83 1004.2
20260906040958 82 196 2.0 3.0 0.00 0.01 0.01 82 1004.0
20260906040458 81 218 2.0 2.0 0.00 0.01 0.01 81 1004.3
20260906035958 82 247 1.0 2.0 0.00 0.01 0.01 78 1004.2
20260906035458 83 322 1.0 2.0 0.00 0.01 0.01 78 1004.2
20260906034958 82 336 2.0 2.0 0.00 0.01 0.01 74 1004.2
20260906034459 82 338 2.0 2.0 0.00 0.01 0.01 75 1004.3
20260906033958 82 312 1.0 1.0 0.00 0.01 0.01 77 1004.3
20260906033458 82 338 1.0 2.0 0.00 0.01 0.01 78 1004.5
20260906032958 82 27 1.0 2.0 0.00 0.01 0.01 77 1004.5
20260906032458 84 20 2.0 2.0 0.00 0.01 0.01 79 1004.5
20260906031958 82 355 1.0 3.0 0.00 0.01 0.01 78 1004.6
20260906031459 83 8 2.0 3.0 0.00 0.01 0.01 77 1004.7
20260906030958 84 360 2.0 2.0 0.00 0.01 0.01 76 1004.7
20260906030458 83 351 1.0 1.0 0.00 0.01 0.01 76 1004.7
20260906025959 84 65 0.0 1.0 0.00 0.01 0.01 76 1004.7
20260906025459 84 88 1.0 2.0 0.00 0.01 0.01 76 1004.7
20260906024958 84 17 1.0 2.0 0.00 0.01 0.01 77 1004.8
20260906024458 84 27 1.0 1.0 0.00 0.01 0.01 76 1004.7
20260906023958 85 29 1.0 1.0 0.00 0.01 0.01 76 1004.7
20260906023458 83 38 1.0 1.0 0.00 0.01 0.01 76 1004.7
20260906022959 83 27 1.0 1.0 0.00 0.01 0.01 77 1004.7
20260906022458 83 149 0.0 1.0 0.00 0.01 0.01 77 1004.7
20260906021958 84 29 0.0 1.0 0.00 0.01 0.01 77 1004.7
20260906021458 83 13 1.0 1.0 0.00 0.01 0.01 76 1004.6
20260906020958 84 347 1.0 1.0 0.00 0.01 0.01 77 1004.5
20260906020458 84 282 1.0 1.0 0.00 0.01 0.01 76 1004.5
20260906015958 84 267 1.0 1.0 0.00 0.01 0.01 76 1004.4
20260906015458 84 287 1.0 1.0 0.00 0.01 0.01 75 1004.3
20260906014958 84 327 1.0 2.0 0.00 0.01 0.01 75 1004.2
20260906014458 85 351 1.0 3.0 0.00 0.01 0.01 76 1004.2
20260906013959 85 20 2.0 3.0 0.00 0.01 0.01 76 1004.2
20260906013458 85 359 2.0 3.0 0.00 0.01 0.01 74 1004.0
20260906012958 83 14 2.0 2.0 0.00 0.01 0.01 74 1004.0
20260906012459 85 353 2.0 2.0 0.00 0.01 0.01 75 1004.1
20260906011958 86 334 1.0 2.0 0.00 0.01 0.01 72 1004.0
20260906011458 86 271 1.0 2.0 0.00 0.01 0.01 73 1004.0
20260906010958 86 247 2.0 2.0 0.00 0.01 0.01 71 1003.8
20260906010458 86 224 2.0 2.0 0.00 0.01 0.01 71 1003.7
20260906005959 87 221 2.0 2.0 0.00 0.01 0.01 71 1003.6
20260906005459 88 217 2.0 2.0 0.00 0.01 0.01 71 1003.5
20260906004958 87 218 1.0 2.0 0.00 0.01 0.01 69 1003.5
20260906004458 88 265 1.0 1.0 0.00 0.01 0.01 67 1003.5
20260906003959 89 232 1.0 1.0 0.00 0.01 0.01 67 1003.5
20260906003458 89 215 1.0 1.0 0.00 0.01 0.01 66 1003.5
20260906002958 90 214 0.0 3.0 0.00 0.01 0.01 67 1003.5
20260906002458 91 2 1.0 3.0 0.00 0.01 0.01 65 1003.5
20260906001958 92 27 3.0 3.0 0.00 0.01 0.01 64 1003.5
20260906001458 91 300 0.0 1.0 0.00 0.01 0.01 56 1003.5
20260906000958 91 302 0.0 2.0 0.00 0.01 0.01 57 1003.5
20260906000458 93 294 1.0 3.0 0.00 0.01 0.01 59 1003.6
20260905235959 92 209 1.0 4.0 0.00 0.01 0.01 54 1003.6
20260905235458 94 189 3.0 4.0 0.00 0.01 0.01 54 1003.5
20260905234958 94 191 4.0 4.0 0.00 0.01 0.01 53 1003.3
20260905234458 93 179 3.0 4.0 0.00 0.01 0.01 54 1003.7
20260905233958 91 191 3.0 3.0 0.00 0.01 0.01 54 1003.8
20260905233458 94 194 3.0 3.0 0.00 0.01 0.01 56 1003.8
20260905232958 94 203 2.0 4.0 0.00 0.01 0.01 56 1003.7
20260905232458 93 167 2.0 5.0 0.00 0.01 0.01 58 1003.6
20260905231958 94 185 4.0 5.0 0.00 0.01 0.01 54 1003.6
20260905231458 94 180 4.0 5.0 0.00 0.01 0.01 53 1003.6
20260905230959 94 175 3.0 5.0 0.00 0.01 0.01 55 1003.6
20260905230459 93 197 4.0 5.0 0.00 0.01 0.01 52 1003.5
20260905225958 93 188 4.0 5.0 0.00 0.01 0.01 51 1003.1
20260905225458 93 187 4.0 6.0 0.00 0.01 0.01 50 1003.4
20260905224959 93 182 3.0 6.0 0.01 0.01 0.01 52 1003.4
20260905224459 94 198 5.0 6.0 0.01 0.01 0.01 53 1003.4
20260905223958 92 189 3.0 6.0 0.01 0.01 0.01 55 1003.5
20260905223458 92 175 4.0 7.0 0.01 0.01 0.01 54 1003.4
20260905222958 91 190 5.0 7.0 0.01 0.01 0.01 54 1003.5
20260905222458 91 171 3.0 7.0 0.01 0.01 0.01 56 1003.5
20260905221959 90 164 4.0 8.0 0.01 0.01 0.01 59 1003.7
20260905221458 90 169 5.0 9.0 0.01 0.01 0.01 59 1003.7
20260905220958 89 192 5.0 9.0 0.01 0.01 0.01 64 1003.9
20260905220458 87 174 5.0 11.0 0.01 0.01 0.01 67 1004.0
20260905215958 87 150 4.0 13.0 0.01 0.01 0.01 71 1004.1
20260905215458 88 181 10.0 13.0 0.01 0.01 0.01 68 1004.2
20260905214958 90 195 8.0 17.0 0.00 0.00 0.00 58 1004.3
20260905214458 91 155 10.0 17.0 0.00 0.00 0.00 51 1004.4
20260905213958 93 144 11.0 17.0 0.00 0.00 0.00 49 1004.1
20260905213458 94 169 9.0 16.0 0.00 0.00 0.00 49 1004.1
20260905212958 93 167 8.0 23.0 0.00 0.00 0.00 49 1004.0
20260905212458 94 154 12.0 23.0 0.00 0.00 0.00 49 1004.0
20260905211959 98 103 14.0 17.0 0.00 0.00 0.00 44 1003.8
20260905211458 97 58 3.0 4.0 0.00 0.00 0.00 51 1003.0
20260905210958 95 22 2.0 7.0 0.00 0.00 0.00 49 1003.6
20260905210458 95 28 3.0 8.0 0.00 0.00 0.00 47 1003.5
20260905205958 97 344 6.0 9.0 0.00 0.00 0.00 43 1003.4
20260905205458 97 345 5.0 9.0 0.00 0.00 0.00 42 1003.5
20260905204958 98 13 7.0 9.0 0.00 0.00 0.00 41 1003.6
20260905204459 101 27 3.0 5.0 0.00 0.00 0.00 37 1003.8
20260905203958 101 312 2.0 7.0 0.00 0.00 0.00 37 1003.6
20260905203459 101 48 3.0 11.0 0.00 0.00 0.00 37 1003.8
20260905202958 100 54 7.0 11.0 0.00 0.00 0.00 41 1004.1
20260905202458 100 15 7.0 11.0 0.00 0.00 0.00 39 1004.0
20260905201958 100 221 2.0 7.0 0.00 0.00 0.00 38 1004.1
20260905201458 100 331 2.0 7.0 0.00 0.00 0.00 37 1004.2
20260905200958 99 345 5.0 7.0 0.00 0.00 0.00 41 1004.3
20260905200459 99 347 3.0 7.0 0.00 0.00 0.00 39 1004.5
20260905195958 97 15 4.0 12.0 0.00 0.00 0.00 43 1004.6
20260905195458 98 30 4.0 12.0 0.00 0.00 0.00 43 1004.7
20260905194958 97 2 7.0 12.0 0.00 0.00 0.00 43 1004.7
20260905194458 100 322 6.0 9.0 0.00 0.00 0.00 40 1004.8
20260905193958 101 349 3.0 6.0 0.00 0.00 0.00 39 1004.9
20260905193458 101 348 2.0 6.0 0.00 0.00 0.00 38 1004.8
20260905192959 100 329 5.0 9.0 0.00 0.00 0.00 39 1005.0
20260905192458 100 348 3.0 9.0 0.00 0.00 0.00 39 1005.0
20260905191958 99 12 4.0 8.0 0.00 0.00 0.00 37 1005.1
20260905191459 99 149 2.0 9.0 0.00 0.00 0.00 40 1005.2
20260905190959 99 265 4.0 10.0 0.00 0.00 0.00 38 1005.2
20260905190458 99 351 6.0 10.0 0.00 0.00 0.00 40 1005.2
20260905185959 99 36 4.0 12.0 0.00 0.00 0.00 39 1005.3
20260905185458 99 26 5.0 12.0 0.00 0.00 0.00 44 1005.4
20260905184958 99 353 3.0 9.0 0.00 0.00 0.00 42 1005.5
20260905184458 96 14 6.0 10.0 0.00 0.00 0.00 40 1005.7
20260905183958 98 352 6.0 12.0 0.00 0.00 0.00 42 1005.6
20260905183458 98 38 8.0 12.0 0.00 0.00 0.00 42 1005.7
20260905182958 100 28 7.0 8.0 0.00 0.00 0.00 45 1005.8
20260905182459 97 22 6.0 8.0 0.00 0.00 0.00 41 1005.9
20260905181958 100 306 4.0 7.0 0.00 0.00 0.00 47 1005.9
20260905181459 98 10 4.0 6.0 0.00 0.00 0.00 41 1005.9
20260905180958 97 313 5.0 8.0 0.00 0.00 0.00 40 1005.6
20260905180458 97 264 1.0 8.0 0.00 0.00 0.00 41 1006.2
20260905175958 98 253 3.0 5.0 0.00 0.00 0.00 40 1005.9
20260905175458 96 325 1.0 5.0 0.00 0.00 0.00 43 1006.3
20260905174958 95 14 3.0 5.0 0.00 0.00 0.00 42 1006.2
20260905174458 98 357 4.0 4.0 0.00 0.00 0.00 48 1006.3
20260905173958 98 11 1.0 5.0 0.00 0.00 0.00 40 1006.3
20260905173458 97 18 3.0 6.0 0.00 0.00 0.00 43 1006.4
20260905172958 95 4 2.0 7.0 0.00 0.00 0.00 45 1006.5
20260905172458 96 14 5.0 7.0 0.00 0.00 0.00 46 1006.6
20260905171958 97 4 1.0 7.0 0.00 0.00 0.00 44 1006.6
20260905171459 96 6 1.0 7.0 0.00 0.00 0.00 47 1006.7
20260905170958 96 23 4.0 6.0 0.00 0.00 0.00 48 1006.8
20260905170459 96 331 2.0 7.0 0.00 0.00 0.00 46 1006.8
20260905165958 96 32 3.0 7.0 0.00 0.00 0.00 46 1006.9
20260905165458 97 224 1.0 8.0 0.00 0.00 0.00 44 1006.9
20260905164958 95 45 6.0 8.0 0.00 0.00 0.00 46 1006.9
20260905164458 95 336 5.0 9.0 0.00 0.00 0.00 43 1006.9
20260905163958 96 45 3.0 9.0 0.00 0.00 0.00 44 1007.0
20260905163458 96 56 3.0 6.0 0.00 0.00 0.00 46 1007.0
20260905162958 96 354 5.0 10.0 0.00 0.00 0.00 45 1007.0
20260905162458 95 39 6.0 10.0 0.00 0.00 0.00 44 1007.2
20260905161958 95 18 5.0 10.0 0.00 0.00 0.00 46 1007.3
20260905161458 96 357 4.0 7.0 0.00 0.00 0.00 47 1007.2
20260905160958 94 360 2.0 7.0 0.00 0.00 0.00 47 1007.1
20260905160458 95 358 3.0 7.0 0.00 0.00 0.00 49 1007.2
20260905155959 94 354 4.0 7.0 0.00 0.00 0.00 54 1007.2
20260905155458 94 32 2.0 8.0 0.00 0.00 0.00 50 1007.2
20260905154958 93 12 3.0 8.0 0.00 0.00 0.00 53 1007.2
20260905154458 93 292 3.0 8.0 0.00 0.00 0.00 54 1007.2
20260905153958 93 15 6.0 7.0 0.00 0.00 0.00 53 1007.2
20260905153458 91 3 3.0 9.0 0.00 0.00 0.00 53 1007.3